Voltar ao catálogo

FENGYUN 1C DEB

LostSSO
NORAD 32312·DEBRIS·🇨🇳 China

Lançado May 10, 1999 de Taiyuan Satellite Launch Center

Loading…

Próximas Passagens (próximas 24 horas)

TLE

ObsoletoSource: Space-Track

Época: Sep 1, 2022, 10:44 UTC

1 32312U 99025CXD 22244.44790778  .00000606  00000-0  47583-3 0  9998
2 32312  98.7753 312.8018 0134973  36.3138  28.8966 13.91355058780965

Acompanhe FENGYUN 1C DEB em tempo real com AllMySat

Download on the App Store